Location: �perlecques
(50.8057°N, 2.1521°E)
Time: 18:29:46
(UTC+00:00)

Vanguard 3 - Pass Details

Date: 08 August 2021
Orbit: 510 x 3260 km, 33.3° (Epoch: 16 September)

Event Time Altitude Azimuth Distance (km) Brightness Sun altitude
Rises 22:33:11 0° 270° (W) 6,663 12.1 -20.8°
Reaches altitude 10° 22:40:23 10° 252° (WSW) 5,993 11.6 -21.3°
Maximum altitude 22:49:21 15° 224° (SW) 5,714 11.2 -21.7°
Enters shadow 22:56:24 12° 201° (SSW) 5,957 11.1 -22.0°
